Asheville, NC

12:55 PM EDT on September 24, 2017 (GMT -0400)
Asheville Regional

Weather History for KAVL - May, 2011

Change the Weather History Date:

Monday, May 23, 2011

  Actual Average Record
Temperature  
Mean Temperature 71 °F 65 °F  
Max Temperature 85 °F 76 °F 90 °F (1953)
Min Temperature 57 °F 53 °F 35 °F (2002)
Degree Days  
Heating Degree Days 0 2  
Month to date heating degree days 108 95  
Since 1 July heating degree days 4257 4167  
Cooling Degree Days 6 2  
Month to date cooling degree days 47 30  
Year to date cooling degree days 75 38  
Growing Degree Days 20 (Base 50)    
Moisture  
Dew Point 61 °F    
Average Humidity 70    
Maximum Humidity 100    
Minimum Humidity 40    
Precipitation  
Precipitation 0.00 in 0.12 in 2.29 in (1913)
Month to date precipitation 2.23 2.67  
Year to date precipitation 18.60 17.26  
Snow  
Snow 0.00 in 0.00 in 0.00 in ()
Month to date snowfall 0.0 0.0  
Since 1 July snowfall 20.8 9.9  
Snow Depth 0.00 in    
Sea Level Pressure  
Sea Level Pressure 30.03 in    
Wind  
Wind Speed 2 mph (SW)    
Max Wind Speed 10 mph    
Max Gust Speed 14 mph    
Visibility 4 miles    
Events Fog    
T = Trace of Precipitation, MM = Missing Value Source: NWS Daily Summary

Daily Weather History Graph

Daily Weather History Graph

Search for Another Location

Airport or City:

Trip Planner

Search our weather history database for the weather conditions in past years. The results will help you decide how hot, cold, wet, or windy it might be!

Date:

Astronomy

May. 23, 2011 Rise Set
Actual Time 6:20 AM EDT 8:33 PM EDT
Civil Twilight 5:51 AM EDT 9:02 PM EDT
Nautical Twilight 5:16 AM EDT 9:38 PM EDT
Astronomical Twilight 4:38 AM EDT 10:16 PM EDT
Moon 1:06 AM EDT (5/23) 12:18 PM EDT (5/23)
Length of Visible Light 15h 11m
Length of Day
14h 13m
Waning Gibbous, 61% of the Moon is Illuminated
May 23
Waning Gibbous
May 24
Last Quarter
Jun 1
New
Jun 8
First Quarter
Jun 15
Full

Hourly Weather History & Observations

Time (EDT) Temp. Heat Index Dew Point Humidity Pressure Visibility Wind Dir Wind Speed Gust Speed Precip Events Conditions
12:54 AM 63.0 °F - 62.1 °F 97% 30.01 in 9.0 mi Calm Calm - N/A   Clear
1:54 AM 62.1 °F - 60.1 °F 93% 30.01 in 6.0 mi Calm Calm - N/A   Clear
2:47 AM 60.8 °F - 60.8 °F 100% 30.08 in 9.0 mi Calm Calm - N/A   Partly Cloudy
2:54 AM 61.0 °F - 60.1 °F 97% 30.00 in 7.0 mi Calm Calm - N/A   Partly Cloudy
3:41 AM 59.0 °F - 59.0 °F 100% 30.06 in 1.5 mi Calm Calm - N/A   Scattered Clouds
3:43 AM 59.0 °F - 59.0 °F 100% 30.06 in 1.0 mi Calm Calm - N/A   Mist
3:45 AM 59.0 °F - 59.0 °F 100% 30.06 in 0.5 mi Calm Calm - N/A Fog Fog
3:54 AM 60.1 °F - 59.0 °F 96% 29.99 in 0.2 mi Calm Calm - N/A Fog Fog
4:14 AM 60.8 °F - 60.8 °F 100% 30.06 in 0.2 mi Calm Calm - N/A Fog Fog
4:34 AM 60.8 °F - 60.8 °F 100% 30.06 in 0.2 mi Calm Calm - N/A Fog Fog
4:54 AM 59.0 °F - 59.0 °F 100% 29.99 in 0.2 mi Calm Calm - N/A Fog Fog
5:15 AM 57.2 °F - 57.2 °F 100% 30.06 in 0.2 mi South 3.5 mph - N/A Fog Fog
5:30 AM 59.0 °F - 59.0 °F 100% 30.06 in 0.2 mi Calm Calm - N/A Fog Fog
5:38 AM 59.0 °F - 59.0 °F 100% 30.06 in 0.5 mi Calm Calm - N/A Fog Fog
5:54 AM 57.9 °F - 57.9 °F 100% 29.98 in 0.8 mi Calm Calm - N/A   Mist
6:02 AM 57.2 °F - 57.2 °F 100% 30.05 in 0.5 mi South 3.5 mph - N/A Fog Fog
6:11 AM 57.2 °F - 57.2 °F 100% 30.06 in 0.2 mi South 3.5 mph - N/A Fog Fog
6:27 AM 57.2 °F - 57.2 °F 100% 30.06 in 0.2 mi Calm Calm - N/A Fog Fog
6:54 AM 57.9 °F - 57.9 °F 100% 30.01 in 0.1 mi Calm Calm - N/A Fog Fog
7:01 AM 57.2 °F - 57.2 °F 100% 30.07 in 0.2 mi Calm Calm - N/A Fog Fog
7:54 AM 60.1 °F - 60.1 °F 100% 30.06 in 0.5 mi Calm Calm - N/A Fog Fog
8:34 AM 60.8 °F - 60.8 °F 100% 30.12 in 1.5 mi Calm Calm - N/A   Overcast
8:39 AM 62.6 °F - 62.6 °F 100% 30.12 in 3.0 mi NNW 4.6 mph - N/A   Overcast
8:52 AM 62.6 °F - 62.6 °F 100% 30.11 in 5.0 mi NNW 4.6 mph - N/A   Overcast
8:54 AM 63.0 °F - 62.1 °F 97% 30.06 in 1.0 mi NNW 4.6 mph - N/A   Overcast
9:01 AM 62.6 °F - 62.6 °F 100% 30.11 in 5.0 mi Calm Calm - N/A   Overcast
9:40 AM 62.6 °F - 62.6 °F 100% 30.10 in 2.5 mi WSW 4.6 mph - N/A   Overcast
9:54 AM 63.0 °F - 63.0 °F 100% 30.04 in 3.0 mi SSW 3.5 mph - N/A   Overcast
10:02 AM 62.6 °F - 62.6 °F 100% 30.10 in 1.0 mi Calm Calm - N/A   Overcast
10:54 AM 68.0 °F - 64.0 °F 87% 30.04 in 1.0 mi Calm Calm - N/A   Clear
11:01 AM 69.8 °F - 64.4 °F 83% 30.09 in 2.0 mi Calm Calm - N/A   Haze
11:54 AM 73.9 °F - 64.0 °F 71% 30.02 in 8.0 mi SSE 3.5 mph - N/A   Clear
12:54 PM 78.1 °F - 62.1 °F 58% 30.01 in 10.0 mi Calm Calm - N/A   Partly Cloudy
1:54 PM 81.0 °F 81.7 °F 61.0 °F 50% 29.97 in 10.0 mi Variable 3.5 mph - N/A   Clear
2:54 PM 82.9 °F 83.3 °F 61.0 °F 47% 29.97 in 10.0 mi WNW 3.5 mph - N/A   Clear
3:54 PM 82.9 °F 84.0 °F 63.0 °F 51% 29.96 in 10.0 mi SW 3.5 mph - N/A   Partly Cloudy
4:54 PM 84.0 °F 83.5 °F 57.9 °F 41% 29.94 in 10.0 mi SSW 8.1 mph - N/A   Clear
5:54 PM 84.0 °F 83.8 °F 59.0 °F 43% 29.94 in 10.0 mi Calm Calm - N/A   Partly Cloudy
6:54 PM 81.0 °F 82.2 °F 63.0 °F 54% 29.92 in 10.0 mi South 5.8 mph - N/A   Clear
7:54 PM 77.0 °F - 61.0 °F 58% 29.93 in 10.0 mi South 5.8 mph - N/A   Clear
8:54 PM 73.9 °F - 61.0 °F 64% 29.94 in 10.0 mi South 5.8 mph - N/A   Clear
9:54 PM 72.0 °F - 61.0 °F 68% 29.96 in 10.0 mi Calm Calm - N/A   Clear
10:54 PM 72.0 °F - 62.1 °F 71% 29.98 in 10.0 mi South 3.5 mph - N/A   Clear
11:54 PM 69.1 °F - 61.0 °F 75% 29.97 in 10.0 mi WNW 4.6 mph - N/A   Clear